SCP
0 0 0 0 0 0 0 0 0 0 0 0 0 0 0 0 0 0 0 0 0 0 0 0 0 0 0 0 0 0 0 0 0 0 0 0 0 0 0 0 0 0 0
0 0 0 0 0 0 0 0 0 0 0 0 0 0 0 0 0 0 0 0 0 0 0 0 0 0 0 0 0 0 0 0 0 0 0 0 0 0 0 0 0 0 0
0 0 0 0 0 0 0 0 0 0 0 0 0 0 0 0 0 0 0 0 0 0 0 0 0 0 0 0 0 0 0 0 0 0 0 0 0 0 0 0 0 0 0
0 0 0 0 0 0 0 0 0 0 0 0 0 0 0 0 0 0 0 0 0 0 0 0 0 0 0 0 0 0 0 0 0 0 0 0 0 0 0 0 0 0 0
0 0 0 0 0 0 0 0 0 0 0 0 0 0 0 0 0 0 0 0 0 0 0 0 0 0 0 0 0 0 0 0 0 0 0 0 0 0 0 0 0 0 0
0 0 0 0 0 0 0 0 0 0 0 0 0 0 0 0 0 0 0 0 0 0 0 0 0 0 0 0 0 0 0 0 0 0 0 0 0 0 0 0 0 0 0
0 0 0 0 0 0 0 0 0 0 0 0 0 0 0 0 0 0 0 0 0 0 0 0 0 0 0 0 0 0 0 0 0 0 0 0 0 0 0 0 0 0 0
0 0 0 0 0 0 0 0 0 0 0 0 0 0 0 0 0 0 0 0 0 0 0 0 0 0 0 0 0 0 0 0 0 0 0 0 0 0 0 0 0 0 0
0 0 0 0 0 0 0 0 0 0 0 0 0 0 0 0 0 0 0 0 0 0 0 0 0 0 0 0 0 0 0 0 0 0 0 0 0 0 0 0 0 0 0
0 0 0 0 0 0 0 0 0 0 0 0 0 0 0 0 0 0 0 0 0 0 0 0 0 0 0 0 0 0 0 0 0 0 0 0 0 0 0 0 0 0 0
0 0 0 0 0 0 0 0 0 0 0 0 0 0 0 0 0 0 0 0 0 0 0 0 0 0 0 0 0 0 0 0 0 0 0 0 0 0 0 0 0 0 0
0 0 0 0 0 0 0 0 0 0 0 0 0 0 0 0 0 0 0 0 0 0 0 0 0 0 0 0 0 0 0 0 0 0 0 0 0 0 0 0 0 0 0
0 0 0 0 0 0 0 0 0 0 0 0 0 0 0 0 0 0 0 0 0 0 0 0 0 0 0 0 0 0 0 0 0 0 0 0 0 0 0 0 0 0 0
0 0 0 0 0 0 0 0 0 0 0 0 0 0 0 0 0 0 0 0 0 0 0 0 0 0 0 0 0 0 0 0 0 0 0 0 0 0 0 0 0 0 0
0 0 0 0 0 0 0 0 0 0 0 0 0 0 0 0 0 0 0 0 0 0 0 0 0 0 0 0 0 0 0 0 0 0 0 0 0 0 0 0 0 0 0
0 0 0 0 0 0 0 0 0 0 0 0 0 0 0 0 0 0 0 0 0 0 0 0 0 0 0 0 0 0 0 0 0 0 0 0 0 0 0 0 0 0 0
0 0 0 0 0 0 0 0 0 0 0 0 0 0 0 0 0 0 0 0 0 0 0 0 0 0 0 0 0 0 0 0 0 0 0 0 0 0 0 0 0 0 0
0 0 0 0 0 0 0 0 0 0 0 0 0 0 0 0 0 0 0 0 0 0 0 0 0 0 0 0 0 0 0 0 0 0 0 0 0 0 0 0 0 0 0
0 0 0 0 0 0 0 0 0 0 0 0 0 0 0 0 0 0 0 0 0 0 0 0 0 0 0 0 0 0 0 0 0 0 0 0 0 0 0 0 0 0 0
0 0 0 0 0 0 0 0 0 0 0 0 0 0 0 0 0 0 0 0 0 0 0 0 0 0 0 0 0 0 0 0 0 0 0 0 0 0 0 0 0 0 0
0 0 0 0 0 0 0 0 0 0 0 0 0 0 0 0 0 0 0 0 0 0 0 0 0 0 0 0 0 0 0 0 0 0 0 0 0 0 0 0 0 0 0
0 0 0 0 0 0 0 0 0 0 0 0 0 0 0 0 0 0 0 0 0 0 0 0 0 0 0 0 0 0 0 0 0 0 0 0 0 0 0 0 0 0 0
0 0 0 0 0 0 0 0 0 0 0 0 0 0 0 0 0 0 0 0 0 0 0 0 0 0 0 0 0 0 0 0 0 0 0 0 0 0 0 0 0 0 0
0 0 0 0 0 0 0 0 0 0 0 0 0 0 0 0 0 0 0 0 0 0 0 0 0 0 0 0 0 0 0 0 0 0 0 0 0 0 0 0 0 0 0
0 0 0 0 0 0 0 0 0 0 0 0 0 0 0 0 0 0 0 0 0 0 0 0 0 0 0 0 0 0 0 0 0 0 0 0 0 0 0 0 0 0 0
0 0 0 0 0 0 0 0 0 0 0 0 0 0 0 0 0 0 0 0 0 0 0 0 0 0 0 0 0 0 0 0 0 0 0 0 0 0 0 0 0 0 0
Wind_Speed
2 1 1 1 1 1 1 1 1 1 1 1 1 1 1 1 1 1 2 4 4 4 4 4 4 4 4 4 4 4 4 5 5 5 6 6 5 5 5 5 5 5 6
2 2 1 1 1 1 1 1 1 1 0 0 1 1 1 1 1 1 1 3 5 5 5 5 5 5 5 5 5 5 5 6 6 6 6 6 5 6 5 5 5 5 6
2 2 1 1 0 0 1 1 1 1 1 1 1 1 1 1 1 1 1 1 2 5 6 6 6 6 6 6 6 6 6 6 7 6 7 6 5 5 5 6 6 6 6
3 2 2 1 1 1 1 1 1 1 1 1 1 1 1 1 1 1 1 1 1 2 4 5 6 6 6 6 7 7 6 6 7 7 7 7 6 6 6 6 6 6 6
2 2 2 1 1 1 1 1 1 1 0 1 1 1 1 1 1 1 1 1 1 1 2 4 6 6 6 6 7 7 7 7 7 7 7 8 7 7 7 6 6 6 7
2 2 1 1 1 1 1 1 1 1 1 0 1 2 2 2 1 1 1 1 2 2 2 2 2 4 6 7 7 8 8 7 8 8 8 8 8 7 7 7 7 7 7
2 2 1 1 1 2 2 2 1 1 1 1 1 2 2 1 1 1 1 1 1 2 2 2 1 1 3 6 7 8 8 8 8 8 8 8 8 8 7 8 7 7 8
3 2 2 2 1 1 1 2 2 1 0 1 1 1 2 2 1 1 1 1 1 1 2 2 1 1 2 2 5 7 8 8 8 8 9 9 9 8 8 8 8 8 8
3 3 3 3 2 2 2 2 2 3 1 0 1 2 1 2 3 2 1 1 1 1 2 2 2 2 2 2 3 5 8 8 9 9 10 10 9 8 8 8 8 8 8
2 2 3 3 3 2 2 2 2 2 2 1 0 0 1 1 1 3 2 2 2 2 2 2 2 2 2 2 3 6 8 8 9 9 10 11 10 10 9 9 9 9 9
2 2 2 2 2 2 3 2 2 2 2 2 2 1 0 0 0 1 3 3 3 2 2 2 2 2 2 2 3 5 8 8 8 9 10 11 11 10 10 10 10 9 9
1 2 2 2 3 2 3 3 2 2 2 2 2 2 2 2 1 1 2 3 4 3 3 2 2 2 2 2 4 8 8 8 8 9 9 10 10 10 11 10 10 10 10
2 3 3 3 3 2 2 2 2 2 2 2 2 2 2 2 1 2 2 2 4 4 3 2 2 2 2 2 3 8 7 8 8 8 9 9 9 10 10 10 10 10 10
3 3 3 3 3 3 3 3 2 2 2 3 2 2 1 2 2 2 2 1 3 4 3 4 2 2 2 3 5 7 5 8 8 8 9 9 9 9 10 10 10 10 10
2 3 3 3 3 3 3 3 2 3 2 3 3 2 2 2 2 1 2 2 2 3 5 3 3 2 3 3 5 3 3 6 8 8 9 9 9 9 9 10 10 10 10
3 3 3 3 3 3 3 3 2 3 3 3 2 2 3 2 2 2 2 2 3 3 5 3 3 3 4 4 6 3 4 7 7 8 8 8 8 8 8 9 9 10 10
3 3 3 3 3 3 3 3 3 3 3 3 3 3 3 3 2 2 2 2 2 3 6 5 3 3 3 3 4 3 3 3 3 7 9 9 8 8 8 9 9 10 10
3 3 3 3 3 3 3 4 4 3 4 4 3 3 3 2 3 2 2 3 3 3 4 6 4 3 3 2 3 3 3 3 3 7 9 9 8 8 9 9 10 10 10
3 3 3 3 3 3 3 3 3 4 4 4 4 4 4 3 4 3 3 3 3 3 3 4 5 2 2 2 2 3 3 3 3 5 7 8 9 9 9 10 10 10 10
2 3 3 3 3 3 3 3 3 3 3 3 3 4 4 4 5 5 4 4 3 3 3 3 4 3 2 2 1 2 3 3 4 3 5 6 8 8 9 10 10 10 9
2 2 2 2 2 2 3 3 3 3 3 3 3 3 4 5 6 5 4 4 4 3 3 3 3 3 3 2 2 1 3 4 4 2 3 4 4 4 5 7 8 9 9
1 2 2 2 2 2 4 5 4 3 3 3 3 3 4 4 5 7 7 6 5 4 4 3 3 4 4 3 2 2 2 3 4 2 2 4 2 3 4 4 8 9 8
2 2 2 2 3 3 4 5 5 2 3 3 3 3 3 3 4 3 5 6 6 7 7 5 5 5 5 4 3 3 3 3 4 3 2 4 3 4 4 5 9 9 8
2 2 2 2 2 3 4 5 4 2 2 3 3 4 4 4 4 4 3 3 4 5 6 5 5 5 5 4 4 4 4 4 4 3 2 3 3 4 5 4 7 8 9
2 2 2 2 2 3 5 4 3 1 2 3 3 3 3 4 6 5 3 3 4 4 5 6 7 6 6 6 4 2 2 2 4 3 1 2 3 4 4 3 5 8 9
2 2 2 2 2 3 5 5 3 1 2 2 2 3 5 5 6 6 4 4 5 4 3 3 4 5 5 5 5 3 3 3 3 3 1 1 2 2 4 3 2 3 4
Wind_Direction
117 98 80 68 56 66 87 92 90 74 61 43 32 26 357 345 338 341 335 348 345 332 324 317 310 308 303 302 308 312 312 312 314 307 310 303 309 307 308 310 311 310 312
132 122 106 95 73 77 116 118 135 119 64 41 17 5 343 340 341 337 334 338 342 333 322 314 309 306 305 302 301 303 306 309 310 307 305 300 300 300 302 304 306 304 307
138 132 134 132 107 83 85 95 88 95 77 34 4 354 6 356 330 329 328 326 329 335 323 314 311 308 304 304 302 305 307 307 311 305 304 295 287 293 296 299 302 306 304
141 136 139 151 125 116 118 117 104 78 51 22 344 336 346 356 342 324 329 333 333 335 331 328 322 316 310 309 307 306 306 310 311 310 307 302 289 287 288 293 298 303 304
147 139 147 153 130 122 126 135 104 112 96 353 329 339 342 330 315 329 346 347 336 338 338 337 338 331 324 320 316 312 306 309 311 310 309 306 296 287 283 286 291 295 299
147 135 134 134 126 127 125 130 133 95 119 134 359 349 328 311 327 332 319 333 337 338 340 341 333 330 334 328 318 316 308 306 308 310 309 309 301 288 287 288 289 293 293
154 143 142 136 140 159 169 157 138 110 63 52 48 346 325 316 313 308 306 327 333 324 331 330 321 318 320 327 323 319 312 309 308 309 312 312 304 297 291 287 289 292 290
164 162 162 157 166 166 154 150 140 135 79 63 103 31 332 328 322 308 309 301 307 318 314 311 306 310 311 315 318 324 315 309 306 305 308 311 306 303 299 294 291 292 295
177 172 169 166 177 181 186 186 173 163 172 220 100 140 164 253 309 311 296 302 310 296 290 294 295 295 301 306 302 316 321 309 304 304 306 309 303 298 299 301 305 305 299
180 180 172 174 178 178 184 201 191 182 161 173 175 57 181 173 220 306 311 307 295 287 288 301 297 291 295 294 300 312 315 310 304 303 304 307 305 298 296 298 298 299 299
178 179 173 173 185 187 185 183 190 188 178 175 172 175 173 28 179 228 288 307 309 283 275 273 274 280 284 286 288 302 308 305 305 305 305 305 305 304 299 294 293 293 294
184 191 180 180 192 195 193 192 185 191 202 190 187 178 175 180 204 214 260 289 296 295 288 269 260 264 270 277 290 308 308 304 301 301 305 308 305 307 308 302 296 292 291
202 208 195 193 199 202 199 188 184 195 193 192 204 215 209 213 199 206 234 278 290 293 296 283 259 262 275 276 286 302 304 304 301 303 306 309 307 306 306 305 305 300 296
206 197 192 194 200 199 197 187 194 209 196 198 214 217 220 233 218 209 202 230 291 296 286 278 283 256 267 274 281 301 297 298 301 305 307 307 307 307 306 304 303 304 301
193 186 189 194 199 196 194 185 197 211 204 208 212 213 223 233 228 224 214 205 218 277 285 271 277 285 289 282 288 290 284 287 299 302 303 303 306 307 307 306 304 302 303
183 181 192 195 198 197 194 191 200 207 203 220 214 208 227 232 223 218 220 225 221 234 266 273 269 291 299 299 300 296 281 296 300 304 305 304 305 307 308 308 306 302 300
185 188 195 198 201 202 197 194 207 203 206 223 223 217 231 224 221 226 226 228 233 233 257 277 271 286 287 288 306 309 299 290 293 305 305 305 304 306 308 306 304 301 300
198 193 191 197 204 205 200 197 208 210 211 222 227 225 237 231 229 230 227 233 239 238 247 274 286 288 277 289 304 304 309 307 293 301 307 307 307 307 306 305 303 301 300
200 195 186 197 208 211 209 209 208 212 218 223 223 226 234 226 236 239 233 233 240 247 245 261 281 283 281 293 312 307 305 302 302 305 306 309 307 306 306 305 304 303 300
192 198 197 201 207 213 213 211 213 217 222 229 232 233 235 231 235 237 237 234 235 243 249 257 271 280 277 280 292 305 317 312 305 307 307 307 303 303 304 302 302 303 304
196 198 191 196 202 208 210 207 212 216 218 232 241 243 244 245 245 246 244 235 224 232 241 251 262 278 278 286 283 282 297 307 300 286 303 302 302 299 300 298 298 302 303
182 182 194 199 211 226 228 224 222 216 219 226 241 252 252 252 257 263 262 252 234 228 232 236 247 259 264 260 261 269 287 311 302 298 310 298 294 291 292 288 298 302 304
183 191 204 205 224 236 236 235 229 220 227 236 238 246 259 259 265 263 264 265 258 250 240 228 237 245 255 249 249 261 264 271 271 285 302 284 284 283 288 291 300 302 311
187 201 214 221 240 252 249 241 239 223 229 238 239 239 244 255 253 255 244 257 259 257 252 241 235 243 246 249 237 240 249 269 273 271 262 273 285 285 297 295 301 308 316
197 210 216 217 239 263 258 243 246 216 237 254 255 251 249 251 257 255 236 248 264 265 260 252 251 256 263 263 252 238 250 275 286 278 235 265 285 297 289 284 300 311 314
203 212 232 230 236 254 257 249 247 215 240 264 271 262 256 260 263 260 234 234 255 261 260 266 261 264 261 260 260 233 225 248 275 277 240 265 281 317 306 291 301 312 313